Wind_Speed
7 8 8 9 9 10 11 11 12 13 13 14 15 15 16 17 17 18 19 19 20 20 21 22 23 24 25 26 27 29 30 31 32 33 33 33 35 36
9 10 11 11 12 13 13 13 14 15 16 16 17 17 17 18 19 19 20 20 21 21 22 23 24 25 26 27 27 29 30 31 32 34 35 36 35 36
11 12 13 13 14 15 15 16 16 17 17 18 18 19 19 19 20 21 21 22 22 23 23 24 25 26 27 27 28 29 31 32 33 34 35 36 37 38
13 14 15 16 17 17 18 18 18 19 19 20 20 21 21 21 22 23 23 24 24 25 25 26 26 27 28 28 29 30 31 32 34 35 36 37 39 40
16 16 17 18 19 19 20 20 21 21 22 22 23 23 23 24 25 25 26 26 27 27 27 28 28 29 29 30 31 31 32 33 34 36 37 38 39 41
18 19 20 20 21 21 22 22 23 24 24 24 25 25 26 27 27 27 28 28 29 29 29 30 30 30 31 32 32 33 34 34 35 36 37 38 39 41
21 21 22 22 23 24 24 25 25 26 26 26 27 28 29 29 30 30 30 30 31 32 32 32 33 33 33 33 34 34 35 35 36 37 38 39 40 41
23 24 25 25 26 26 26 27 27 28 28 29 30 30 31 32 32 33 33 33 33 35 35 35 36 35 35 35 35 36 37 37 37 38 38 39 41 42
26 26 27 28 28 29 29 29 30 30 31 31 31 32 33 34 35 35 35 35 36 37 38 37 38 38 38 38 38 38 39 39 39 39 40 40 41 42
28 29 29 29 30 31 31 31 31 33 34 34 34 35 36 37 38 38 38 39 38 40 41 39 39 40 40 40 41 40 41 41 41 41 41 41 42 42
31 31 32 32 32 33 33 33 34 35 36 37 37 38 38 39 41 41 42 43 42 42 44 43 42 42 42 43 43 43 42 42 42 42 42 42 42 42
33 34 34 34 35 35 36 36 37 37 38 39 40 41 42 42 44 45 45 46 45 44 46 47 46 46 45 44 45 45 44 44 43 43 43 43 43 43
35 36 37 37 37 38 38 39 40 40 40 41 42 43 44 46 47 48 49 49 49 48 48 50 49 49 49 46 46 46 46 46 45 44 44 44 44 44
37 38 38 39 40 41 41 42 42 43 43 44 45 46 47 49 50 51 52 52 52 52 52 52 52 51 51 49 46 46 47 47 46 45 44 44 44 44
39 39 40 40 42 43 44 45 45 46 47 48 48 50 51 52 53 54 55 55 54 53 53 54 53 53 52 50 47 46 46 46 46 46 45 44 44 44
41 42 43 44 45 45 46 47 48 49 50 51 52 53 54 55 56 56 56 56 55 54 54 53 52 52 51 49 47 45 45 45 45 45 45 44 44 44
43 44 45 46 47 47 48 49 51 53 54 55 56 56 56 57 57 57 57 56 55 53 52 51 51 50 48 46 44 43 43 43 44 44 44 43 42 43
46 47 47 48 49 50 51 52 54 56 57 58 58 58 58 57 57 56 55 54 53 51 50 48 48 48 46 44 44 44 43 42 42 43 44 43 42 42
48 48 49 50 50 51 53 54 56 57 58 58 58 58 57 56 55 54 53 52 50 48 46 45 45 45 44 43 42 44 43 42 41 41 41 41 40 40
48 49 50 50 52 53 55 56 56 57 57 56 56 56 55 54 53 51 50 49 47 46 44 44 43 43 43 42 40 40 42 41 40 39 38 38 38 38
50 50 51 52 54 55 55 56 55 55 55 55 54 53 51 50 48 47 46 45 44 43 42 41 40 41 40 39 38 36 37 38 37 37 36 36 36 36
51 52 53 54 54 54 54 54 54 53 53 51 50 48 47 46 45 44 43 42 41 40 39 38 38 38 37 36 34 33 33 34 35 34 34 35 35 34
52 52 53 53 53 53 52 52 52 51 49 47 45 44 44 43 42 41 40 38 36 35 34 33 32 32 32 32 32 31 31 31 32 32 32 32 33 33
Wind_Direction
305 306 307 307 309 309 308 310 311 310 309 307 305 302 299 298 297 295 293 290 288 284 281 279 277 276 274 271 268 264 262 261 259 256 255 253 251 250
299 301 302 302 303 304 304 304 305 306 307 306 305 302 300 298 296 295 294 292 290 287 284 281 278 277 276 273 270 267 265 263 261 259 257 255 253 252
295 297 299 299 299 300 301 301 301 302 302 302 301 301 299 298 296 295 294 293 291 289 287 283 281 278 276 274 272 269 267 265 263 261 258 256 253 252
293 295 298 299 298 298 299 299 300 300 299 299 299 299 298 298 297 295 294 293 291 290 288 285 282 280 277 276 274 272 269 268 265 263 260 256 255 253
291 294 296 297 297 298 298 298 298 298 298 297 297 296 296 296 296 295 294 292 291 290 289 287 284 281 279 277 275 274 272 270 268 265 263 260 257 255
290 292 294 295 296 297 297 296 297 297 296 295 295 294 294 294 294 294 293 292 291 290 289 287 285 283 281 279 278 275 274 272 270 267 265 262 259 256
289 290 291 292 293 294 294 295 295 294 294 293 292 293 293 294 293 293 292 291 291 290 289 287 285 283 282 281 280 278 276 274 272 269 267 264 261 258
289 289 290 290 290 291 292 292 293 293 292 291 291 291 292 292 292 292 292 291 290 289 289 287 285 283 281 280 279 278 276 275 273 271 269 266 263 260
288 288 289 290 290 291 290 290 291 291 291 291 291 291 291 291 291 291 291 290 289 288 287 286 285 284 282 280 278 277 276 275 273 272 271 268 265 262
286 287 287 289 290 290 289 289 290 290 290 290 291 291 291 291 292 291 290 290 289 288 287 286 284 283 282 280 279 277 276 275 273 272 271 269 267 264
285 286 288 289 289 289 289 289 289 288 288 289 290 290 290 291 291 291 290 289 289 288 287 286 284 282 281 280 279 277 276 274 272 272 271 269 267 266
285 287 288 288 288 288 289 289 288 288 288 289 290 290 290 290 290 290 289 288 288 287 286 285 284 282 280 279 278 277 276 274 273 271 270 268 267 265
285 286 286 286 286 287 287 288 288 288 288 289 289 290 290 290 290 290 289 288 287 286 285 284 283 282 281 278 276 275 275 274 272 271 270 268 267 265
285 285 285 285 285 286 287 287 287 287 288 289 290 290 290 290 290 289 289 288 287 286 285 283 283 281 280 278 276 274 274 272 271 269 268 267 266 265
284 284 284 285 285 285 286 287 287 288 289 290 291 291 291 290 290 289 289 288 288 287 285 284 282 281 279 277 275 273 272 271 271 269 267 266 265 264
284 284 284 284 284 284 285 286 287 288 289 290 290 290 290 290 290 290 289 288 287 285 284 283 281 280 278 276 275 274 272 270 268 268 266 264 264 264
284 284 284 283 284 285 286 286 287 288 289 290 290 290 290 290 289 289 288 288 286 285 283 282 280 279 277 276 274 272 271 269 267 266 265 263 261 261
284 284 284 284 285 285 286 287 288 289 290 290 289 289 290 289 288 288 288 287 285 283 282 281 278 278 277 276 275 273 272 271 269 267 265 263 261 260
284 285 284 285 286 287 287 288 288 289 289 289 290 290 290 289 288 287 287 286 285 283 281 280 279 278 276 274 273 272 272 271 270 268 266 263 261 259
284 285 285 286 287 287 288 289 290 290 290 290 290 290 290 289 288 288 287 286 284 282 280 280 279 278 277 275 273 271 272 271 269 267 265 263 261 260
285 286 287 287 288 289 290 290 291 290 290 289 289 290 290 289 289 289 287 287 284 281 279 279 278 278 277 276 276 274 271 270 269 267 265 264 262 259
287 288 289 289 289 289 290 291 291 291 291 290 290 289 289 289 289 288 288 287 285 282 280 280 279 278 277 276 276 273 271 269 268 268 267 265 262 259
289 289 290 290 290 291 291 292 292 291 291 290 289 289 289 289 290 290 289 289 287 285 283 282 280 279 277 276 275 273 272 270 269 268 267 265 263 261
Height
5870 5869 5868 5867 5866 5865 5864 5862 5861 5859 5858 5856 5855 5853 5851 5850 5848 5846 5845 5843 5842 5840 5839 5838 5837 5836 5835 5834 5834 5834 5834 5835 5835 5836 5837 5838 5839 5841
5867 5866 5865 5864 5863 5861 5860 5859 5857 5855 5853 5852 5850 5849 5847 5845 5843 5841 5839 5837 5836 5834 5832 5831 5830 5829 5828 5827 5826 5826 5826 5826 5827 5827 5828 5829 5830 5832
5863 5862 5861 5860 5858 5857 5856 5854 5852 5851 5849 5847 5845 5843 5841 5839 5837 5835 5833 5831 5829 5828 5826 5824 5823 5821 5820 5819 5818 5818 5817 5817 5817 5818 5818 5819 5820 5822
5859 5858 5857 5855 5854 5852 5850 5849 5847 5845 5844 5841 5839 5837 5835 5833 5831 5829 5827 5825 5823 5821 5819 5817 5815 5813 5812 5811 5810 5809 5808 5808 5808 5808 5808 5809 5810 5811
5854 5853 5852 5850 5848 5847 5845 5843 5841 5839 5837 5835 5833 5831 5829 5827 5825 5822 5820 5817 5815 5813 5811 5809 5807 5805 5803 5802 5801 5800 5799 5799 5798 5798 5798 5798 5799 5800
5849 5847 5846 5844 5843 5841 5839 5837 5835 5833 5831 5829 5826 5824 5822 5819 5817 5815 5812 5809 5807 5805 5802 5800 5798 5796 5794 5793 5791 5790 5789 5788 5788 5787 5787 5787 5788 5789
5843 5841 5840 5838 5836 5834 5832 5830 5828 5826 5823 5821 5819 5816 5814 5811 5809 5806 5804 5801 5798 5796 5794 5791 5789 5787 5785 5783 5781 5780 5778 5777 5776 5776 5775 5775 5776 5777
5836 5835 5833 5831 5829 5827 5825 5822 5820 5818 5815 5813 5810 5808 5805 5803 5800 5797 5794 5792 5789 5786 5784 5782 5779 5777 5774 5772 5770 5768 5767 5766 5765 5764 5763 5763 5763 5764
5829 5827 5825 5823 5821 5819 5816 5814 5812 5809 5807 5804 5802 5799 5796 5793 5790 5787 5784 5782 5779 5776 5773 5771 5768 5766 5763 5761 5759 5757 5755 5754 5752 5752 5751 5751 5751 5751
5821 5819 5817 5815 5812 5810 5808 5806 5803 5800 5797 5794 5792 5789 5786 5782 5779 5776 5773 5770 5768 5764 5760 5759 5756 5754 5751 5748 5746 5744 5742 5741 5740 5739 5738 5738 5737 5738
5812 5810 5808 5806 5803 5801 5799 5796 5793 5790 5787 5784 5781 5778 5775 5771 5767 5764 5761 5757 5755 5752 5747 5745 5743 5740 5738 5735 5732 5730 5729 5727 5726 5726 5725 5724 5724 5724
5803 5801 5799 5796 5794 5791 5788 5786 5783 5780 5777 5773 5770 5767 5763 5759 5755 5751 5747 5744 5741 5739 5734 5730 5728 5725 5724 5722 5718 5716 5714 5713 5712 5712 5711 5711 5710 5710
5793 5791 5789 5786 5783 5780 5777 5774 5771 5768 5765 5762 5758 5755 5751 5746 5742 5737 5733 5729 5726 5724 5720 5715 5712 5709 5707 5707 5705 5701 5700 5699 5698 5697 5696 5696 5696 5696
5783 5780 5777 5774 5771 5768 5765 5762 5759 5756 5753 5749 5746 5742 5737 5733 5728 5723 5718 5714 5710 5707 5703 5699 5696 5693 5691 5690 5689 5687 5684 5683 5682 5682 5682 5682 5682 5682
5771 5769 5765 5762 5759 5756 5753 5749 5746 5742 5738 5735 5731 5727 5722 5717 5712 5707 5702 5698 5694 5690 5686 5682 5679 5676 5674 5673 5673 5671 5670 5668 5667 5667 5667 5667 5668 5668
5760 5757 5753 5750 5747 5744 5740 5736 5732 5728 5724 5720 5716 5711 5706 5701 5695 5690 5686 5681 5677 5674 5669 5665 5661 5659 5657 5656 5655 5655 5654 5653 5652 5651 5652 5653 5654 5654
5746 5743 5740 5737 5734 5730 5726 5722 5717 5713 5708 5704 5699 5694 5689 5684 5679 5673 5668 5663 5659 5656 5653 5649 5645 5642 5641 5641 5640 5640 5639 5638 5638 5637 5637 5638 5640 5640
5733 5730 5726 5722 5719 5715 5711 5706 5701 5696 5691 5686 5681 5676 5671 5666 5662 5656 5651 5646 5642 5639 5636 5633 5630 5628 5627 5626 5626 5625 5624 5624 5624 5623 5622 5624 5626 5626
5719 5715 5711 5707 5703 5698 5694 5690 5685 5679 5674 5668 5664 5658 5653 5648 5644 5640 5635 5630 5626 5623 5621 5618 5615 5613 5612 5613 5613 5610 5610 5610 5609 5609 5609 5609 5612 5613
5703 5700 5695 5691 5687 5682 5677 5672 5667 5662 5657 5651 5646 5641 5636 5632 5627 5623 5619 5615 5611 5609 5606 5604 5601 5599 5598 5598 5599 5599 5596 5595 5596 5596 5596 5597 5598 5600
5688 5684 5679 5675 5670 5665 5660 5655 5650 5645 5640 5635 5630 5625 5620 5616 5612 5608 5604 5600 5597 5594 5593 5591 5589 5586 5585 5584 5585 5586 5584 5583 5582 5583 5584 5585 5587 5588
5672 5668 5663 5658 5653 5648 5643 5638 5633 5628 5623 5619 5614 5610 5606 5601 5597 5594 5590 5587 5584 5581 5580 5579 5577 5575 5573 5573 5572 5572 5572 5572 5571 5571 5572 5573 5574 5576
5656 5651 5646 5641 5636 5631 5626 5622 5617 5612 5608 5604 5600 5596 5592 5588 5585 5581 5578 5574 5572 5570 5568 5567 5565 5564 5563 5562 5561 5561 5561 5561 5560 5561 5562 5562 5563 5564